[[{"header":{"parameterUnit":"m.s-1","parameterCategory":1,"la1":30.2991,"la2":30.254,"lo1":-89.0895,"lo2":-89.0444,"dx":0.0017,"dy":0.0017,"nx":28,"ny":28,"refTime":"2022-12-07T03:00:00:Z","depth":0,"parameterNumber":2,"parameterNumberName":"U-component_of_WINDS"},"data":[0,0,0,0,0,0,0,0,0,0,0,0,0,0,0,0,0,0,0,0,0,0,0,0,0,0,0,0,0,0,0,0,0,0,0,0,0,0,0,0,0,0,0,0,0,0,0,0,0,0,0,0,0,0,0,0,0,0,-1.3832,-1.3831,0,-1.3808,-1.3808,-1.3808,-1.3736,-1.3734,-1.3733,-1.3731,-1.3708,-1.3709,-1.371,0,0,0,0,0,0,0,0,0,0,0,0,0,-1.3816,-1.3816,-1.3832,-1.3831,-1.3831,-1.3809,-1.3808,-1.3808,-1.3736,-1.3734,-1.3732,-1.3731,-1.3708,-1.3709,-1.371,0,0,0,0,0,0,0,0,0,0,0,0,0,-1.3811,-1.3817,-1.3832,-1.3793,-1.3789,-1.3809,-1.3808,-1.3808,-1.3737,-1.3734,-1.3732,-1.373,-1.3708,-1.3709,-1.371,-1.3766,0,0,-1.3714,-1.3715,0,0,0,0,0,0,0,0,-1.3811,-1.3811,-1.3799,-1.3795,-1.3791,-1.3773,-1.3794,-1.3794,-1.3737,-1.3757,-1.3731,-1.3729,-1.3732,-1.3731,-1.3732,-1.3765,-1.3764,-1.3714,-1.3715,-1.3716,-1.3716,0,0,0,0,0,0,0,-1.3812,-1.3812,-1.3822,-1.3799,-1.3794,-1.3777,-1.3774,-1.3794,-1.3758,-1.3755,-1.3749,-1.3748,-1.3729,-1.3731,-1.3731,-1.3764,-1.3714,-1.3715,-1.3716,-1.3717,-1.3843,-1.3846,0,0,0,0,0,0,-1.3817,-1.3813,-1.3823,-1.3822,-1.3795,-1.3779,-1.3775,-1.3781,-1.3757,-1.3751,-1.375,-1.3744,-1.373,-1.3729,-1.373,-1.3794,-1.3716,-1.3717,-1.3718,-1.3841,-1.3844,-1.3847,0,0,0,0,0,0,-1.3817,-1.3819,-1.3824,-1.3816,-1.3815,-1.3782,-1.3789,-1.3782,-1.3783,-1.3754,-1.3747,-1.3758,-1.3728,-1.3728,-1.3758,-1.3793,-1.3717,-1.3719,-1.3838,-1.3842,-1.3845,-1.3924,0,0,0,0,0,0,-1.3817,-1.3819,-1.384,-1.3817,-1.3816,-1.3853,-1.3791,-1.3783,-1.3786,-1.3778,-1.3759,-1.3754,-1.3726,-1.3756,-1.3759,-1.3793,-1.372,-1.3834,-1.3839,-1.3844,-1.3918,-1.393,-1.394,0,0,0,0,0,-1.3817,-1.3863,-1.3841,-1.3843,-1.3841,-1.3855,-1.3854,-1.3821,-1.3789,-1.3809,-1.3791,-1.3754,-1.3788,-1.376,-1.3763,-1.3797,-1.3832,-1.3838,-1.3844,-1.3913,-1.3928,-1.394,0,0,0,0,0,0,-1.389,-1.3859,-1.3835,-1.3874,-1.3868,-1.3842,-1.3867,-1.3837,-1.3839,-1.3833,-1.3791,-1.3788,-1.3824,-1.3813,-1.3782,-1.3851,-1.3804,-1.3811,-1.3856,-1.387,-1.3881,-1.3883,-1.3721,0,0,0,0,0,-1.3911,-1.3924,-1.3896,-1.3934,-1.3932,-1.3901,-1.3905,-1.388,-1.3872,-1.3869,-1.3852,-1.3846,-1.3855,-1.3862,-1.3869,-1.3917,-1.3912,-1.3942,-1.3953,-1.3962,-1.3969,-1.3995,-1.4008,-1.3866,-1.3866,-1.3866,0,0,-1.3954,-1.3938,-1.3949,-1.3949,-1.394,-1.3956,-1.3899,-1.3917,-1.3929,-1.3872,-1.3899,-1.3887,-1.3877,-1.3917,-1.3934,-1.391,-1.4007,-1.397,-1.3977,-1.3978,-1.4002,-1.4015,-1.4027,-1.387,-1.3869,-1.3868,0,0,-1.404,-1.403,-1.4061,-1.4054,-1.4043,-1.4022,-1.403,-1.4009,-1.3999,-1.4026,-1.3984,-1.3998,-1.4014,-1.4009,-1.4009,-1.4096,-1.4063,-1.4099,-1.4157,-1.4183,-1.4194,-1.4204,-1.4236,-1.4248,-1.4106,-1.4106,-1.4106,0,-1.4095,-1.4117,-1.408,-1.4102,-1.4104,-1.4053,-1.4085,-1.408,-1.4072,-1.4075,-1.4048,-1.4069,-1.4058,-1.4097,-1.4118,-1.412,-1.4128,-1.4101,-1.4196,-1.4205,-1.4214,-1.4244,-1.4256,-1.411,-1.411,-1.4109,-1.4109,0,-1.4185,-1.4201,-1.4228,-1.4221,-1.4226,-1.4253,-1.4221,-1.423,-1.4205,-1.4188,-1.4217,-1.4203,-1.4207,-1.4214,-1.419,-1.425,-1.4235,-1.4203,-1.4155,-1.4232,-1.426,-1.4271,-1.4117,-1.4115,-1.4114,-1.4113,0,0,-1.4316,-1.4291,-1.4301,-1.4298,-1.4283,-1.4295,-1.432,-1.4324,-1.4333,-1.433,-1.435,-1.4366,-1.4337,-1.4337,-1.4311,-1.4334,-1.4406,-1.4299,-1.4298,-1.432,-1.4472,-1.4497,-1.4511,-1.4384,-1.4386,-1.4388,-1.4473,0,-1.4399,-1.444,-1.4409,-1.4455,-1.447,-1.4424,-1.4446,-1.444,-1.4424,-1.4435,-1.4418,-1.443,-1.4389,-1.4389,-1.441,-1.4393,-1.4436,-1.4386,-1.4404,-1.4405,-1.4408,-1.4525,-1.4551,-1.4633,-1.4484,-1.4486,-1.4487,0,-1.45,-1.4502,-1.455,-1.4534,-1.4539,-1.4559,-1.4561,-1.4572,-1.4564,-1.4551,-1.4553,-1.4522,-1.4546,-1.45,-1.4534,-1.4501,-1.4506,-1.4499,-1.4502,-1.4502,-1.4451,-1.4529,-1.4658,-1.467,-1.4503,-1.4502,-1.4501,0,-1.4592,-1.4606,-1.4637,-1.4636,-1.4617,-1.4633,-1.4626,-1.4616,-1.4621,-1.4623,-1.4626,-1.4631,-1.4634,-1.4639,-1.4611,-1.4579,-1.4649,-1.4599,-1.4639,-1.464,-1.4656,-1.4655,-1.4787,-1.4659,-1.4659,-1.4659,-1.4659,0,-1.4687,-1.4719,-1.4678,-1.4698,-1.4733,-1.4697,-1.4733,-1.4721,-1.4713,-1.4729,-1.4689,-1.4706,-1.4668,-1.4681,-1.466,-1.4692,-1.4693,-1.4684,-1.4678,-1.4688,-1.4689,-1.4691,-1.4685,-1.4662,-1.4661,-1.4661,-1.466,0,-1.4795,-1.4769,-1.48,-1.478,-1.4776,-1.4803,-1.4786,-1.4803,-1.4786,-1.4808,-1.4811,-1.4783,-1.4797,-1.477,-1.478,-1.4765,-1.4811,-1.4795,-1.4813,-1.4809,-1.4851,-1.4847,-1.4989,-1.5006,-1.4867,-1.4868,-1.4869,0,-1.4858,-1.4881,-1.4864,-1.4873,-1.4868,-1.4882,-1.4887,-1.4854,-1.4861,-1.4855,-1.4874,-1.4884,-1.489,-1.4915,-1.4896,-1.4904,-1.4889,-1.4938,-1.4889,-1.4899,-1.489,-1.4889,-1.4892,-1.4948,-1.4949,-1.4951,-1.4952,0,-1.4972,-1.4959,-1.4967,-1.4973,-1.498,-1.4982,-1.4982,-1.4991,-1.4956,-1.4966,-1.498,-1.4985,-1.4995,-1.5006,-1.501,-1.5003,-1.4973,-1.4967,-1.4977,-1.4987,-1.4997,-1.4993,-1.4841,-1.4964,-1.4963,-1.4962,-1.4961,-1.4961,-1.506,-1.5079,-1.5071,-1.5082,-1.5078,-1.5079,-1.5095,-1.508,-1.5091,-1.5097,-1.5077,-1.5095,-1.5089,-1.5091,-1.5087,-1.5102,-1.508,-1.5094,-1.5097,-1.5102,-1.5109,-1.4995,-1.5102,-1.5102,-1.5102,-1.5101,-1.5101,0,-1.5173,-1.5165,-1.5177,-1.5177,-1.5187,-1.5157,-1.5156,-1.5166,-1.5182,-1.5179,-1.5186,-1.5203,-1.5214,-1.5197,-1.5205,-1.522,-1.5207,-1.5224,-1.5222,-1.5222,-1.5127,-1.5118,-1.5235,-1.5235,-1.5235,-1.5235,-1.5235,-1.5235,-1.5233,-1.5264,-1.525,-1.528,-1.5272,-1.529,-1.5292,-1.5293,-1.529,-1.531,-1.5319,-1.5308,-1.53,-1.5307,-1.5317,-1.5311,-1.5317,-1.5339,-1.5329,-1.5241,-1.5228,-1.5216,-1.5207,-1.534,-1.534,-1.5422,-1.5423,-1.5423]},{"header":{"parameterUnit":"m.s-1","parameterCategory":1,"la1":30.2991,"la2":30.254,"lo1":-89.0895,"lo2":-89.0444,"dx":0.0017,"dy":0.0017,"nx":28,"ny":28,"refTime":"2022-12-07T03:00:00:Z","depth":0,"parameterNumber":3,"parameterNumberName":"V-component_of_WINDS"},"data":[0,0,0,0,0,0,0,0,0,0,0,0,0,0,0,0,0,0,0,0,0,0,0,0,0,0,0,0,0,0,0,0,0,0,0,0,0,0,0,0,0,0,0,0,0,0,0,0,0,0,0,0,0,0,0,0,0,0,1.1109,1.1109,0,1.1139,1.1139,1.1139,1.1179,1.1179,1.118,1.1181,1.121,1.121,1.121,0,0,0,0,0,0,0,0,0,0,0,0,0,1.1085,1.1085,1.1108,1.1109,1.1109,1.1139,1.1139,1.1139,1.1179,1.1179,1.118,1.1181,1.1209,1.121,1.121,0,0,0,0,0,0,0,0,0,0,0,0,0,1.1103,1.1085,1.1108,1.1132,1.1135,1.1139,1.1139,1.114,1.1178,1.1179,1.118,1.1181,1.1209,1.121,1.121,1.1192,0,0,1.1211,1.1211,0,0,0,0,0,0,0,0,1.1102,1.1104,1.1128,1.1131,1.1133,1.1156,1.1141,1.1157,1.1178,1.1162,1.1181,1.1182,1.1191,1.1193,1.1196,1.1193,1.1195,1.1211,1.1211,1.1211,1.1211,0,0,0,0,0,0,0,1.11,1.1103,1.112,1.1129,1.1132,1.1142,1.1145,1.1144,1.117,1.1163,1.1166,1.1169,1.1192,1.1196,1.1197,1.1195,1.1211,1.1211,1.1211,1.1211,1.1181,1.118,0,0,0,0,0,0,1.1096,1.1101,1.1119,1.1121,1.112,1.1141,1.1145,1.1148,1.1171,1.1175,1.1168,1.1171,1.1195,1.1197,1.1198,1.1179,1.1211,1.1211,1.1211,1.1181,1.118,1.1179,0,0,0,0,0,0,1.1095,1.1097,1.1118,1.1112,1.1116,1.1141,1.1143,1.1148,1.1151,1.1175,1.1179,1.1167,1.1196,1.1198,1.1194,1.1181,1.1211,1.1212,1.1183,1.1181,1.118,1.1141,0,0,0,0,0,0,1.1094,1.1096,1.109,1.1112,1.1116,1.1113,1.1142,1.1148,1.1152,1.1155,1.1175,1.1179,1.1197,1.1193,1.1194,1.1182,1.1212,1.1184,1.1182,1.118,1.1144,1.1139,1.1134,0,0,0,0,0,1.1093,1.1077,1.1089,1.1091,1.1108,1.1112,1.1115,1.1136,1.1151,1.1144,1.116,1.1178,1.1182,1.1192,1.1194,1.1181,1.1185,1.1182,1.118,1.1146,1.114,1.1134,0,0,0,0,0,0,1.1052,1.108,1.1094,1.1085,1.1096,1.1119,1.1111,1.1129,1.1135,1.1138,1.1165,1.1169,1.1161,1.1171,1.1182,1.1166,1.1186,1.1184,1.116,1.1154,1.1149,1.1147,1.1212,0,0,0,0,0,1.1042,1.1043,1.1068,1.1057,1.1062,1.1086,1.1088,1.1104,1.1117,1.1121,1.1136,1.1147,1.1152,1.1153,1.1158,1.1146,1.1151,1.1138,1.1133,1.1129,1.1127,1.1122,1.1117,1.1172,1.1172,1.1172,0,0,1.102,1.1036,1.1035,1.1049,1.106,1.1061,1.1089,1.1089,1.109,1.1121,1.1118,1.113,1.1144,1.1136,1.1133,1.1144,1.1113,1.1127,1.1123,1.1123,1.1119,1.1114,1.1109,1.1171,1.1171,1.1171,0,0,1.0982,1.0994,1.0987,1.0998,1.1014,1.103,1.1029,1.105,1.1059,1.1057,1.1081,1.1082,1.1088,1.1098,1.1103,1.1071,1.1089,1.1072,1.1047,1.1042,1.1038,1.1034,1.1023,1.1018,1.107,1.107,1.107,0,1.0954,1.0956,1.0981,1.098,1.0985,1.1015,1.1009,1.1017,1.1034,1.1037,1.1049,1.1059,1.107,1.1065,1.1058,1.1061,1.106,1.1069,1.1036,1.1033,1.103,1.1019,1.1015,1.1068,1.1068,1.1068,1.1068,0,1.0921,1.0922,1.0915,1.0931,1.0936,1.0932,1.0956,1.0958,1.0974,1.0989,1.0987,1.1003,1.1012,1.1012,1.1027,1.1009,1.1016,1.1032,1.1053,1.1022,1.1013,1.1009,1.1065,1.1065,1.1066,1.1067,0,0,1.0855,1.0888,1.0884,1.0893,1.0914,1.0915,1.0913,1.0923,1.0924,1.0935,1.0934,1.094,1.0955,1.0962,1.0978,1.0974,1.0948,1.0991,1.0992,1.0982,1.093,1.0918,1.0913,1.096,1.096,1.0959,1.0929,0,1.0821,1.0819,1.0842,1.0834,1.0836,1.0866,1.0864,1.0876,1.0891,1.0895,1.0911,1.0914,1.0935,1.0939,1.0936,1.0952,1.0938,1.0954,1.0959,1.0959,1.0954,1.0908,1.0894,1.0865,1.0926,1.0925,1.0925,0,1.078,1.0791,1.0782,1.0806,1.0807,1.0805,1.0817,1.082,1.0836,1.0847,1.0855,1.0875,1.0874,1.0895,1.0894,1.0905,1.0909,1.0917,1.0917,1.0917,1.0939,1.0907,1.0856,1.0852,1.0919,1.092,1.092,0,1.0734,1.0746,1.0743,1.0749,1.0776,1.0774,1.0784,1.0801,1.0806,1.0816,1.082,1.083,1.0835,1.0842,1.0864,1.0877,1.0861,1.0884,1.087,1.087,1.0865,1.0865,1.0814,1.0868,1.0868,1.0868,1.0868,0,1.0693,1.0687,1.0722,1.072,1.0715,1.0742,1.0736,1.075,1.0765,1.0766,1.0792,1.0793,1.0822,1.0826,1.0843,1.0841,1.0843,1.0852,1.0856,1.0849,1.0848,1.0851,1.0854,1.0867,1.0867,1.0867,1.0867,0,1.0639,1.0663,1.0662,1.0688,1.0695,1.0689,1.0712,1.0711,1.0728,1.0729,1.0731,1.0758,1.0764,1.0787,1.0798,1.081,1.0802,1.0811,1.0797,1.08,1.0785,1.0786,1.0734,1.0729,1.0786,1.0786,1.0785,0,1.0611,1.0608,1.0634,1.0637,1.0648,1.0652,1.0658,1.0685,1.069,1.0709,1.0706,1.0715,1.0723,1.0732,1.0752,1.0761,1.077,1.0751,1.0772,1.0765,1.077,1.077,1.077,1.0747,1.0746,1.0745,1.0745,0,1.0559,1.0572,1.0579,1.0591,1.0598,1.0608,1.062,1.0621,1.0652,1.0656,1.0663,1.067,1.0683,1.0691,1.0704,1.0716,1.0735,1.0739,1.0736,1.0728,1.072,1.0724,1.0785,1.0739,1.074,1.074,1.074,1.0741,1.0518,1.0516,1.0535,1.0543,1.0555,1.0566,1.0568,1.0585,1.0592,1.0605,1.0621,1.0627,1.0644,1.0664,1.0674,1.0678,1.0689,1.0685,1.0684,1.0683,1.0679,1.072,1.0681,1.0681,1.0681,1.0681,1.0681,0,1.0467,1.0481,1.0488,1.0505,1.0512,1.0531,1.0546,1.055,1.0555,1.0569,1.0578,1.0587,1.0595,1.0617,1.0628,1.0627,1.0637,1.0629,1.0629,1.0632,1.0669,1.067,1.0622,1.0622,1.0622,1.0622,1.0622,1.0622,1.0441,1.044,1.0455,1.0461,1.0475,1.0481,1.0488,1.0499,1.0511,1.052,1.0528,1.0542,1.056,1.0573,1.0582,1.0588,1.059,1.058,1.0589,1.0623,1.0629,1.0634,1.0636,1.058,1.058,1.0551,1.0551,1.0551]}]]